www.pogodaiklimat.ru

Погода и климат >> Архив погоды >> Россия >> Калининградская область >> Мамоново


ПОГОДА в Мамоново

  • Прогноз погоды в Мамоново
  • Монитор погоды в Мамоново

АРХИВ ПОГОДЫ в Мамоново

Время (UTC), дата Ветер
(напр.,м/с)
 
Видим.   Явления Облачность Т
(С)
Тd
(С)
f
(%)
Тe
(С)
Тes
(С)
Комфортность P
(гПа)
Po
(гПа)
Тmin
(С)
Tmax
(С)
R
(мм)
R24
(мм)
S
(см)
06 19.06 ЮВ 2-3
{3}
10 км ясно +22.7 +15.5 64 +27 +32 душно 1016.6 1013.8 +13.6 0.3
09 19.06 В 2-4
{6}
10 км ясно +26.4 +14.6 48 +29 +43 жарко 1015.4 1012.7
12 19.06 ЮВ 3-5
{6}
10 км 8/8 300 м
[Cu Sc]
+27.8 +15.9 48 +31 +33 душно 1013.8 1011.1
15 19.06 В 2-3
{7}
10 км в посл. час ливневой дождь 8/8 300 м
[Cu Sc]
+26.8 +17.3 56 +31 +32 душно 1012.4 1009.7 0.0
18 19.06 В 2-3
{6}
10 км {ливн. осадки} ясно +24.9 +17.1 62 +29 +29 душно 1011.2 1008.5 +28.1 0.0
21 19.06 В 2-4
{4}
10 км 3/0
[Ci fib]
+21.2 +16.6 75 +25 +25 комфорт 1010.9 1008.1
00 20.06 ЮВ 3-5
{6}
10 км 4/0
[Ci fib]
+21.1 +16.3 74 +24 +24 комфорт 1010.3 1007.5
03 20.06 ЮВ 2-3
{5}
10 км 3/0
[Ci fib]
+19.0 +16.5 85 +21 +21 комфорт 1009.9 1007.1 +18.9
06 20.06 Ю 3-4
{6}
10 км 8/0
[Ci fib]
+22.7 +18.5 77 +28 +32 душно 1009.3 1006.6 +18.9
09 20.06 ЮВ 2-4
{5}
10 км 8/0
[Ci fib]
+27.7 +20.1 63 +34 +46 очень
душно
1009.5 1006.8
12 20.06 Ю 3-6
{6}
10 км 6/3 300 м
[Cu med, cong Ci fib]
+29.7 +19.4 54 +35 +44 очень
душно
1008.9 1006.2
15 20.06 З 5-14
{14}
4000 м гроза, ливневой дождь 10/10 300 м
[Cb calv]
+19.5 +17.3 87 +21 +21 комфорт 1011.4 1008.6 1
18 20.06 СЗ 3-4
{12}
10 км {гроза, ливн. осадки} 9/9 300 м
[Sc]
+18.4 +17.3 93 +19 +19 1010.4 1007.6 +30.4 6
21 20.06 З 1-2
{4}
4000 м дымка 6/0
[Ci fib]
+16.7 +16.2 97 +18 +18 1012.4 1009.6
00 21.06 ЮВ 1-2
{2}
4000 м дымка 9/9 300 м
[Sc]
+15.7 +15.4 98 +16 +16 1012.8 1010.0
03 21.06 ЮВ 1-1
{2}
4000 м дымка 8/8 300 м
[Sc]
+15.6 +15.3 98 +16 +16 1013.1 1010.3 +15.1 5
06 21.06 СЗ 3-4
{5}
10 км 6/0
[Ci fib]
+20.6 +17.8 84 +25 +29 комфорт 1014.3 1011.5 +15.1
09 21.06 СЗ 3-5
{5}
10 км 9/0
[Ci fib]
+22.2 +17.5 75 +27 +37 душно 1015.2 1012.4
12 21.06 СЗ 3-5
{6}
10 км 10/10 300 м
[Sc]
+20.0 +16.5 80 +23 +23 комфорт 1015.7 1012.9
15 21.06 СЗ 2-4
{5}
10 км {гроза, ливн. осадки} 8/8 300 м
[Sc]
+20.6 +16.9 79 +25 +26 комфорт 1015.6 1012.8 2
18 21.06 С 3-4
{7}
10 км {гроза, ливн. осадки} 10/10 300 м
[Sc]
+18.6 +15.8 84 +20 +20 1016.7 1013.9 +22.9 2
21 21.06 СЗ 2-3
{6}
10 км 10/10 300 м
[Sc]
+17.1 +15.2 89 +17 +17 1018.5 1015.7
00 22.06 СЗ 3-5
{9}
10 км 6/6 300 м
[Sc]
+16.2 +13.3 83 +16 +16 1019.5 1016.7
03 22.06 СЗ 3-5
{7}
10 км 10/10 300 м
[Sc]
+16.7 +14.2 85 +16 +16 1020.8 1018.0 +15.9
06 22.06 СЗ 4-6
{7}
10 км 5/5 300 м
[Sc]
+18.8 +11.3 62 +19 +21 1022.6 1019.8 +15.9
09 22.06 СЗ 2-4
{7}
10 км 5/5 300 м
[Sc]
+19.2 +12.1 63 +21 +28 комфорт 1024.1 1021.3
12 22.06 СЗ 3-6
{6}
10 км 5/5 300 м
[Sc]
+19.9 +12.1 61 +22 +28 комфорт 1024.7 1021.9
15 22.06 СЗ 3-6
{7}
н/о н/о +18.7 +10.2 58 +19 +19 1024.2 1021.4
18 22.06 СВ 2-3
{7}
10 км 4/0
[Ci fib]
+17.3 +9.7 61 +18 +18 1024.2 1021.4 +20.4
21 22.06 В 1-1
{3}
10 км 4/0
[Ci fib]
+11.5 +10.1 91 +11 +11 1024.2 1021.3
00 23.06 В 1-1
{1}
10 км 4/0
[Ci fib]
+9.1 +8.5 96 +8 +8 1024.3 1021.4
03 23.06 ЮВ 1-1
{2}
10 км 3/0
[Ci fib]
+7.8 +7.2 96 +7 +7 1025.2 1022.3 +7.1
06 23.06 СВ 2-4
{4}
10 км 6/6 300 м
[Cu hum]
+17.1 +10.9 67 +17 +20 1025.1 1022.3 +7.1
09 23.06 СВ 2-4
{5}
10 км ясно +19.1 +9.5 54 +20 +35 опасность
простуды
1025.1 1022.3
12 23.06 С 4-6
{7}
10 км 1/1 300 м
[Cu hum]
+19.5 +12.5 64 +21 +30 комфорт 1024.9 1022.1
15 23.06 С 4-6
{8}
10 км 4/0
[Ci fib]
+20.0 +8.6 48 +21 +25 комфорт 1024.4 1021.6
18 23.06 С 2-4
{7}
10 км 4/0
[Ci fib]
+18.3 +11.1 63 +19 +20 1024.4 1021.6 +20.2
21 23.06 штиль 0
{4}
10 км 4/0
[Ci fib]
+10.6 +9.0 90 +10 +10 1025.5 1022.6
00 24.06 штиль 0
{1}
10 км ясно +8.8 +8.2 96 +8 +8 1026.5 1023.6
03 24.06 ЮВ 1-1
{1}
10 км ясно +7.7 +7.3 97 +7 +7 1026.6 1023.7 +7.1
06 24.06 С 2-3
{3}
10 км 3/0
[Ci fib]
+19.3 +15.1 77 +21 +27 комфорт 1027.3 1024.6 +7.1
09 24.06 СЗ 3-5
{5}
10 км 4/3 300 м
[Cu hum Ci fib]
+21.4 +15.8 70 +25 +33 комфорт 1027.9 1025.1
12 24.06 СЗ 3-5
{7}
10 км 4/1 300 м
[Cu hum Ci fib]
+23.5 +15.3 60 +26 +37 жарко 1027.5 1024.7
15 24.06 С 4-6
{7}
10 км 8/0
[Ci fib]
+22.9 +14.8 60 +27 +30 душно 1027.3 1024.5
18 24.06 С 2-4
{6}
10 км 4/0
[Ci fib]
+21.8 +15.4 67 +25 +26 комфорт 1027.4 1024.6 +24.2
21 24.06 В 1-2
{4}
10 км 6/0
[Ci fib]
+17.1 +14.2 83 +18 +18 1028.3 1025.5
00 25.06 штиль 0
{3}
4000 м дымка ясно +13.1 +12.1 94 +13 +13 1028.6 1025.7
03 25.06 штиль 0
{1}
4000 м дымка 8/0
[Ci fib]
+11.6 +11.1 97 +11 +11 1027.7 1024.8 +11.3
06 25.06 ЮВ 2-3
{3}
10 км 6/0
[Ci fib]
+20.8 +13.8 64 +24 +29 комфорт 1028.1 1025.3 +11.3
09 25.06 В 3-3
{4}
10 км 9/0
[Ci fib]
+26.5 +10.1 36 +27 +37 жарко 1027.8 1025.0
12 25.06 Ю 3-6
{6}
10 км 9/0
[Ci fib]
+28.1 +11.1 35 +29 +39 жарко 1026.7 1024.0
15 25.06 Ю 2-4
{6}
10 км 9/0
[Ci fib]
+28.4 +12.0 36 +29 +35 жарко 1025.2 1022.5
18 25.06 В 1-1
{5}
10 км 8/0
[Ci fib]
+26.6 +14.8 48 +29 +30 жарко 1024.5 1021.8 +28.9
21 25.06 В 2-3
{4}
10 км 8/0
[Ci fib]
+21.5 +14.3 64 +24 +24 комфорт 1023.8 1021.0
00 26.06 ЮВ 2-2
{3}
10 км 6/0
[Ci fib]
+19.1 +14.1 73 +21 +21 комфорт 1022.7 1019.9

 

Местоположение метеостанции Мамоново (Калининградская область, Россия): широта 54.47 долгота 19.93 высота над уровнем моря 23 м.

В архиве по умолчанию представлена погода в Мамоново за последнюю неделю. Архивные данные за месяц целиком и за предыдущие месяцы, начиная с января 2011 года, Вы можете получить, выбрав интересующий диапазон дат из раскрывающегося списка и нажав кнопку "Ввод!".


*Определитесь, кто Вы:
робот инопланетянин человек

Внимание! Время в таблицах - всемирное. Для получения местного времени необходимо прибавить поправку, которая равна 2 ч.

Смотрите также архив погоды в соседних городах и на ближайших метеорологических станциях:

Погода в Балтийске (Калининградская область, Россия) (20 км)
Погода в Рыбном Порту (Калининградская область, Россия) (42 км)
Погода в Эльблонге (Польша) (47 км)
Погода в Калининграде (Калининградская область, Россия) (51 км)
Погода в Пионерском (Калининградская область, Россия) (56 км)
Погода в Хеле (Польша) (73 км)
Погода в Ольштыне (Польша) (84 км)
Погода в Железнодорожном (Калининградская область, Россия) (89 км)
Погода на Авиабазе Гдыня-Оксывье (Польша) (92 км)
Погода в Рыбачем (Калининградская область, Россия) (96 км)

Пояснения к столбцам:

Ветер - указаны скорость ветра в м/с - средняя за 10 мин, порывы в срок и между сроками (в фигурных скобках) и направление, откуда дует ветер: С - северный, СВ - северо-восточный, В - восточный, ЮВ - юго-восточный, Ю - южный, ЮЗ - юго-западный, З - западный, СЗ - северо-западный.
Видимость - горизонтальная дальность видимости в метрах или километрах. При видимости от 1 до 10 км при отсутствии осадков обычно наблюдается дымка, при ухудшении видимости до 1 км и менее - туман. В сухую погоду видимость может ухудшаться дымом, пылью или мглою.
Явления - указаны атмосферные явления, наблюдавшиеся в срок или в последний час перед сроком; фигурными скобками обозначены явления, наблюдавшиеся между сроками (за 1-3 часа до срока); квадратными скобками обозначены град или гололедные отложения с указанием их диаметра в мм.
Облачность - указаны через наклонную черту общая и нижняя облачность в баллах и высота нижней границы облаков в метрах; квадратными скобками обозначены формы облаков: Ci - перистые, Cs - перисто-слоистые, Cc - перисто-кучевые, Ac - высококучевые, As - высокослоистые, Sc - слоисто-кучевые, Ns - слоисто-дождевые, Cu - кучевые, Cb - кучево-дождевые. Подробнее классификацию облаков см. в Атласе облаков (PDF).
T - Температура воздуха - температура, измеренная на высоте 2 м над землей.
Td - Температура точки росы - температура, при понижении до которой содержащийся в воздухе водяной пар достигнет насыщения.
f - Относительная влажность воздуха - влажноcть воздуха, измеренная на высоте 2 м над землей.
Te - Эффективная температура - температура, которую ощущает одетый по сезону человек в тени. Характеристика душности погоды. При расчете учитывается влияние влажности воздуха и скорости ветра на теплоощущения человека.
Tes - Эффективная температура на солнце - температура, которую ощущает человек, с поправкой на солнечный нагрев. Характеристика знойности погоды. Зависит от высоты солнца над горизонтом, облачности и скорости ветра. Ночью, в пасмурную погоду, а также при ветре 12 м/с и более поправка равна нулю.
P - Атмосферное давление - приведенное к уровню моря атмосферное давление.
Po - Атмосферное давление - измеренное на уровне метеостанции атмосферное давление.
Tmin - Минимальная температура - минимум температуры воздуха на высоте 2 м над землей.
Tmax - Максимальная температура - максимум температуры воздуха на высоте 2 м над землей.
R - Количество осадков - Количество выпавших осадков за период времени, мм. При наведении курсора мыши на число - период времени, за который выпало указанное количество осадков.
R24 - Количество осадков - Количество выпавших осадков за 24 часа, мм.
S - Снежный покров - Высота снежного покрова, см. При наведении курсора мыши на число - состояние снежного покрова и степень покрытия местности в баллах.